TimeCST,TemperatureF,Dew PointF,Humidity,Sea Level PressureIn,VisibilityMPH,Wind Direction,Wind SpeedMPH,Gust SpeedMPH,PrecipitationIn,Events,Conditions,WindDirDegrees,DateUTC
12:15 AM,46.9,34.5,62,29.97,10.0,SSE,13.8,-,N/A,,Clear,160,2012-12-06 06:15:00
12:35 AM,47.1,34.7,62,29.96,10.0,SSE,11.5,-,N/A,,Scattered Clouds,160,2012-12-06 06:35:00
12:55 AM,47.3,34.7,62,29.95,10.0,SSE,16.1,-,N/A,,Scattered Clouds,160,2012-12-06 06:55:00
1:15 AM,47.7,34.9,61,29.94,10.0,SSE,11.5,-,N/A,,Clear,160,2012-12-06 07:15:00
1:35 AM,47.7,35.1,62,29.95,10.0,South,11.5,-,N/A,,Scattered Clouds,170,2012-12-06 07:35:00
1:55 AM,47.7,35.1,62,29.94,10.0,South,10.4,-,N/A,,Scattered Clouds,170,2012-12-06 07:55:00
2:15 AM,48.2,34.9,60,29.94,10.0,South,11.5,-,N/A,,Scattered Clouds,170,2012-12-06 08:15:00
2:35 AM,48.4,34.7,59,29.93,10.0,SSE,16.1,21.9,N/A,,Clear,160,2012-12-06 08:35:00
2:55 AM,48.2,34.7,60,29.94,10.0,South,9.2,-,N/A,,Clear,170,2012-12-06 08:55:00
3:15 AM,48.2,34.2,58,29.92,10.0,South,11.5,-,N/A,,Clear,170,2012-12-06 09:15:00
3:55 AM,48.7,33.3,55,29.90,10.0,South,11.5,-,N/A,,Clear,170,2012-12-06 09:55:00
4:15 AM,50.4,32.4,50,29.90,10.0,South,15.0,23.0,N/A,,Clear,180,2012-12-06 10:15:00
4:35 AM,50.2,32.0,50,29.90,10.0,South,16.1,20.7,N/A,,Clear,180,2012-12-06 10:35:00
4:55 AM,50.2,32.0,50,29.89,10.0,South,12.7,23.0,N/A,,Clear,180,2012-12-06 10:55:00
5:15 AM,50.0,32.2,50,29.89,10.0,South,13.8,18.4,N/A,,Clear,180,2012-12-06 11:15:00
5:35 AM,50.0,32.0,50,29.90,10.0,South,15.0,20.7,N/A,,Clear,190,2012-12-06 11:35:00
5:55 AM,50.0,32.0,50,29.89,10.0,South,12.7,19.6,N/A,,Scattered Clouds,190,2012-12-06 11:55:00
6:15 AM,49.6,32.4,51,29.89,10.0,South,11.5,17.3,N/A,,Scattered Clouds,190,2012-12-06 12:15:00
6:35 AM,49.6,32.4,51,29.89,10.0,South,12.7,18.4,N/A,,Clear,190,2012-12-06 12:35:00
6:55 AM,49.6,32.5,52,29.90,10.0,South,9.2,-,N/A,,Clear,190,2012-12-06 12:55:00
7:35 AM,49.3,32.9,53,29.91,10.0,SSW,10.4,-,N/A,,Scattered Clouds,210,2012-12-06 13:35:00
7:55 AM,49.1,32.9,54,29.91,10.0,SSW,9.2,-,N/A,,Scattered Clouds,210,2012-12-06 13:55:00
8:15 AM,48.7,32.9,54,29.91,10.0,SSW,6.9,-,N/A,,Clear,210,2012-12-06 14:15:00
8:35 AM,49.1,33.3,54,29.91,10.0,SSW,9.2,-,N/A,,Clear,210,2012-12-06 14:35:00
8:55 AM,49.1,33.4,55,29.92,10.0,SSW,9.2,-,N/A,,Scattered Clouds,210,2012-12-06 14:55:00
9:15 AM,49.6,33.8,54,29.92,10.0,SW,8.1,-,N/A,,Scattered Clouds,220,2012-12-06 15:15:00
9:35 AM,50.2,33.8,53,29.91,10.0,SW,8.1,-,N/A,,Mostly Cloudy,220,2012-12-06 15:35:00
9:55 AM,50.0,33.8,54,29.91,10.0,SW,8.1,-,N/A,,Overcast,220,2012-12-06 15:55:00
10:15 AM,48.9,36.3,62,29.91,10.0,SW,5.8,-,N/A,Rain,Light Rain,230,2012-12-06 16:15:00
10:55 AM,48.6,37.0,64,29.91,10.0,SW,4.6,-,N/A,,Light Drizzle,230,2012-12-06 16:55:00
11:15 AM,49.1,37.6,64,29.91,10.0,WSW,5.8,-,N/A,,Light Drizzle,240,2012-12-06 17:15:00
11:35 AM,49.1,37.4,64,29.91,10.0,WSW,4.6,-,N/A,,Light Drizzle,240,2012-12-06 17:35:00
11:55 AM,48.4,38.3,68,29.91,10.0,SW,5.8,-,N/A,Rain,Light Rain,230,2012-12-06 17:55:00
12:15 PM,48.2,39.6,72,29.90,10.0,SW,8.1,-,N/A,Rain,Light Rain,230,2012-12-06 18:15:00
12:35 PM,48.2,40.5,75,29.90,10.0,WSW,5.8,-,N/A,,Light Drizzle,240,2012-12-06 18:35:00
12:55 PM,48.4,40.5,74,29.90,10.0,WSW,5.8,-,N/A,,Drizzle,250,2012-12-06 18:55:00
1:15 PM,48.6,39.7,72,29.89,10.0,West,4.6,-,0.01,Rain,Light Rain,260,2012-12-06 19:15:00
1:35 PM,48.4,40.8,75,29.89,10.0,West,3.5,-,0.01,Rain,Rain,260,2012-12-06 19:35:00
1:55 PM,48.9,41.2,75,29.89,10.0,NW,3.5,-,0.02,,Light Drizzle,320,2012-12-06 19:55:00
2:15 PM,48.6,40.3,73,29.90,10.0,NW,6.9,-,N/A,Rain,Rain,320,2012-12-06 20:15:00
2:35 PM,48.7,40.8,74,29.90,10.0,NNW,3.5,-,N/A,,Drizzle,330,2012-12-06 20:35:00
2:55 PM,49.1,40.6,73,29.91,10.0,North,6.9,-,N/A,,Scattered Clouds,350,2012-12-06 20:55:00
3:15 PM,48.7,40.1,72,29.91,10.0,NNW,10.4,-,N/A,,Scattered Clouds,340,2012-12-06 21:15:00
3:35 PM,48.2,38.3,69,29.91,10.0,North,10.4,-,N/A,,Mostly Cloudy,360,2012-12-06 21:35:00
3:55 PM,47.7,38.3,70,29.92,10.0,North,10.4,-,N/A,,Overcast,350,2012-12-06 21:55:00
4:15 PM,46.9,37.6,70,29.93,10.0,North,10.4,-,N/A,,Overcast,360,2012-12-06 22:15:00
4:55 PM,46.4,38.3,73,29.94,10.0,NNW,9.2,-,N/A,,Overcast,340,2012-12-06 22:55:00
5:15 PM,45.7,37.9,74,29.94,10.0,NNW,9.2,-,N/A,,Overcast,330,2012-12-06 23:15:00
6:35 PM,44.8,37.0,74,29.95,10.0,NNW,5.8,-,N/A,,Overcast,340,2012-12-07 00:35:00
6:55 PM,44.8,36.9,74,29.95,10.0,NNW,5.8,-,N/A,,Overcast,330,2012-12-07 00:55:00
7:15 PM,43.7,36.7,76,29.96,10.0,NNW,6.9,-,N/A,,Overcast,330,2012-12-07 01:15:00
7:35 PM,43.2,36.5,77,29.96,10.0,NNW,5.8,-,N/A,,Overcast,330,2012-12-07 01:35:00
7:55 PM,42.8,36.5,78,29.96,10.0,NNW,4.6,-,N/A,,Overcast,340,2012-12-07 01:55:00
8:15 PM,43.0,36.5,78,29.96,10.0,NNW,5.8,-,N/A,,Overcast,330,2012-12-07 02:15:00
8:35 PM,42.8,35.6,76,29.97,10.0,NNW,5.8,-,N/A,,Mostly Cloudy,340,2012-12-07 02:35:00
8:55 PM,41.2,35.1,79,29.97,10.0,NNW,4.6,-,N/A,,Scattered Clouds,330,2012-12-07 02:55:00
9:15 PM,40.6,34.7,79,29.97,10.0,NNW,6.9,-,N/A,,Clear,340,2012-12-07 03:15:00
9:35 PM,39.9,34.2,80,29.97,10.0,NNW,5.8,-,N/A,,Clear,330,2012-12-07 03:35:00
9:55 PM,39.0,33.8,82,29.97,10.0,Calm,Calm,-,N/A,,Scattered Clouds,0,2012-12-07 03:55:00
10:15 PM,40.1,34.5,80,29.98,10.0,Calm,Calm,-,N/A,,Clear,0,2012-12-07 04:15:00
10:35 PM,38.5,33.6,83,29.98,10.0,NNW,4.6,-,N/A,,Clear,340,2012-12-07 04:35:00
10:55 PM,38.3,33.8,84,29.98,10.0,NNW,6.9,-,N/A,,Mostly Cloudy,340,2012-12-07 04:55:00
11:15 PM,39.4,34.5,83,29.98,10.0,North,6.9,-,N/A,,Overcast,350,2012-12-07 05:15:00
11:35 PM,39.6,34.3,82,29.99,10.0,NNW,9.2,-,N/A,,Overcast,330,2012-12-07 05:35:00
11:55 PM,39.9,34.2,80,29.99,10.0,NNW,8.1,-,N/A,,Overcast,340,2012-12-07 05:55:00